Weather in Aleksandrovskaya

Russia / Saint-Petersburg and Leningrad Oblast     59°43′57″N   30°20′31″E
temp.,
°C
wind,
m/s
gust,
m/s
humid.,
%
clouds,
%
prec.,
mm/h
press.,
hPa
HPBL,
m
13 june, sun
sun1300:00+14sse498941 0.0 1002153
03:00+13sse3992100 0.0 1001157
06:00+14sse388764 0.0 1001202
09:00+20s46666 0.0 1001622
12:00+22s675897 0.7 10021447
15:00+21sw677259 2.1 10031036
18:00+18wnw447990 0.8 1004696
21:00+14wnw478993 0.9 1007385
14 june, mon
mon1400:00+12nw6993100 0.0 1009440
03:00+12nw4989100 0.1 1011514
06:00+12nw498975 0.0 1013362
09:00+16nw346327 0.0 1015551
12:00+18nw454580 0.0 10161454
15:00+19wnw4441100 0.0 10161339
18:00+17nw3449100 0.0 1016806
21:00+13nnw116631 0.0 101511
15 june, tue
tue1500:00+10s33695 0.0 101433
03:00+9s496695 0.0 1013128
06:00+11ssw51470100 0.0 1011326
09:00+17ssw61362100 0.0 1009739
12:00+16w6982100 0.4 1009855
15:00+16wsw4780100 1.9 1009896
18:00+18wnw3668100 0.4 1009567
21:00+14wnw377628 0.5 1010195
16 june, wed
wed1600:00+10w48873 0.0 1011148
03:00+9wnw49914 0.0 1013153
06:00+11wnw38805 0.0 1015295
09:00+15wnw57575 0.0 10161004
12:00+17wnw684667 0.0 10181429
15:00+17wnw68446 0.0 10191222
18:00+18wnw574941 0.0 10191075
21:00+13wnw34665 0.0 102188
17 june, thu
thu1700:00+10w22655 0.0 102226
03:00+10wsw33615 0.0 102336
06:00+12wsw356756 0.0 1024116
09:00+18wsw355124 0.0 1025467
12:00+21wsw354539 0.0 10251223
15:00+23w354047 0.0 10241399
18:00+21n23525 0.0 1024368
21:00+18ssw11680 0.0 102413